EWG3V EDDB-EDDK

Flight info

Callsign EWG3V
Flight time 0h 47m
Altitude 34000
Route KISUC1N KISUC Z20 MAG Z92 ABGUS DCT TOLTA DCT PODER Z189 RUNER T858 KOPAG KOPAG1F
Aircraft A320/M-SDE2E3FGIJ1RWXYZ/HB1

Departure

Time 2026-04-30 20:37
Airport Berlin Brandenburg Airport (EDDB)

Arrival

Time 2026-04-30 21:24
Airport Cologne Bonn Airport (EDDK)
Time Latitude Longitude Altitude Speed Heading
2026-04-30 19:51 52.36096 13.51177 155 ft 0 kts 339°
2026-04-30 20:28 52.36082 13.51185 155 ft 4 kts 339°
2026-04-30 20:28 52.36032 13.51216 155 ft 4 kts 339°
2026-04-30 20:29 52.36017 13.51225 155 ft 0 kts 339°
2026-04-30 20:31 52.36016 13.51204 155 ft 6 kts 233°
2026-04-30 20:32 52.35931 13.50884 155 ft 15 kts 248°
2026-04-30 20:32 52.35826 13.50634 155 ft 14 kts 165°
2026-04-30 20:33 52.35759 13.50564 155 ft 14 kts 248°
2026-04-30 20:33 52.35642 13.50074 155 ft 27 kts 249°
2026-04-30 20:33 52.35571 13.49780 154 ft 29 kts 249°
2026-04-30 20:34 52.35455 13.49287 154 ft 25 kts 249°
2026-04-30 20:34 52.35323 13.48733 154 ft 24 kts 249°
2026-04-30 20:35 52.35272 13.48520 154 ft 15 kts 242°
2026-04-30 20:35 52.35186 13.48499 154 ft 14 kts 157°
2026-04-30 20:35 52.35087 13.48759 154 ft 17 kts 99°
2026-04-30 20:36 52.35075 13.48968 154 ft 21 kts 85°
2026-04-30 20:36 52.35134 13.49339 154 ft 55 kts 69°
2026-04-30 20:36 52.35740 13.51868 529 ft 152 kts 69°
2026-04-30 20:37 52.36044 13.53550 1276 ft 160 kts 89°
2026-04-30 20:37 52.35602 13.55238 2029 ft 168 kts 130°
2026-04-30 20:37 52.34650 13.56318 2809 ft 172 kts 167°
2026-04-30 20:37 52.33463 13.56349 3553 ft 174 kts 191°
2026-04-30 20:38 52.32295 13.55532 3981 ft 194 kts 218°
2026-04-30 20:38 52.31172 13.54074 4377 ft 219 kts 220°
2026-04-30 20:38 52.29912 13.52438 4897 ft 244 kts 219°
2026-04-30 20:39 52.27237 13.48364 6293 ft 278 kts 238°
2026-04-30 20:39 52.26459 13.45430 7181 ft 285 kts 259°
2026-04-30 20:39 52.26295 13.42210 8030 ft 291 kts 273°
2026-04-30 20:40 52.26310 13.35448 9883 ft 305 kts 274°
2026-04-30 20:40 52.26313 13.31953 10764 ft 311 kts 274°
2026-04-30 20:40 52.26103 13.28397 11597 ft 321 kts 260°
2026-04-30 20:41 52.25166 13.20951 12718 ft 355 kts 261°
2026-04-30 20:41 52.24694 13.16939 13422 ft 365 kts 261°
2026-04-30 20:41 52.24209 13.12821 14147 ft 373 kts 261°
2026-04-30 20:41 52.23711 13.08615 14803 ft 381 kts 261°
2026-04-30 20:42 52.23199 13.04337 15521 ft 386 kts 262°
2026-04-30 20:42 52.22675 13.00020 16242 ft 391 kts 262°
2026-04-30 20:42 52.21590 12.91216 17674 ft 400 kts 262°
2026-04-30 20:43 52.21035 12.86757 18442 ft 403 kts 262°
2026-04-30 20:43 52.20475 12.82261 19101 ft 407 kts 262°
2026-04-30 20:43 52.19911 12.77715 19721 ft 410 kts 262°
2026-04-30 20:44 52.18964 12.70102 20781 ft 415 kts 262°
2026-04-30 20:44 52.18386 12.65466 21417 ft 418 kts 262°
2026-04-30 20:44 52.17209 12.56119 22648 ft 424 kts 262°
2026-04-30 20:45 52.16007 12.46632 23831 ft 431 kts 262°
2026-04-30 20:45 52.15398 12.41830 24349 ft 434 kts 262°
2026-04-30 20:45 52.14781 12.37007 24828 ft 436 kts 262°
2026-04-30 20:46 52.12904 12.22415 26317 ft 442 kts 262°
2026-04-30 20:46 52.12269 12.17504 26769 ft 445 kts 262°
2026-04-30 20:47 52.10981 12.07604 27678 ft 450 kts 261°
2026-04-30 20:47 52.10324 12.02608 28135 ft 452 kts 261°
2026-04-30 20:48 52.09007 11.92591 29256 ft 451 kts 261°
2026-04-30 20:48 52.08352 11.87618 29902 ft 449 kts 261°
2026-04-30 20:48 52.07694 11.82660 30519 ft 447 kts 261°
2026-04-30 20:48 52.07036 11.77735 31005 ft 445 kts 261°
2026-04-30 20:49 52.06381 11.72836 31373 ft 443 kts 261°
2026-04-30 20:49 52.05726 11.67944 31656 ft 442 kts 261°
2026-04-30 20:49 52.05074 11.63096 31909 ft 441 kts 261°
2026-04-30 20:50 52.03756 11.53383 32424 ft 439 kts 261°
2026-04-30 20:50 52.03105 11.48603 32689 ft 439 kts 261°
2026-04-30 20:50 52.02444 11.43777 32978 ft 437 kts 261°
2026-04-30 20:50 52.01784 11.38971 33376 ft 436 kts 261°
2026-04-30 20:51 52.01127 11.34198 33706 ft 435 kts 261°
2026-04-30 20:51 51.99814 11.24660 34220 ft 430 kts 260°
2026-04-30 20:51 51.99156 11.19921 34407 ft 431 kts 260°
2026-04-30 20:52 51.97843 11.10495 34437 ft 427 kts 260°
2026-04-30 20:53 51.95878 10.96436 34439 ft 426 kts 260°
2026-04-30 20:53 51.94555 10.87075 34439 ft 426 kts 260°
2026-04-30 20:54 51.92556 10.73049 34427 ft 425 kts 259°
2026-04-30 20:55 51.90550 10.59078 34432 ft 424 kts 259°
2026-04-30 20:55 51.89198 10.49797 34431 ft 424 kts 259°
2026-04-30 20:56 51.87160 10.35883 34425 ft 423 kts 259°
2026-04-30 20:57 51.85115 10.21993 34412 ft 423 kts 259°
2026-04-30 20:57 51.83743 10.12754 34416 ft 423 kts 259°
2026-04-30 20:58 51.81665 9.98894 34416 ft 423 kts 258°
2026-04-30 20:58 51.80283 9.89705 34415 ft 423 kts 258°
2026-04-30 20:59 51.78185 9.75842 34412 ft 424 kts 258°
2026-04-30 21:00 51.75361 9.57402 34420 ft 422 kts 258°
2026-04-30 21:01 51.73929 9.48202 34052 ft 423 kts 258°
2026-04-30 21:01 51.73209 9.43608 33779 ft 423 kts 258°
2026-04-30 21:01 51.71767 9.34401 33237 ft 424 kts 258°
2026-04-30 21:02 51.71045 9.29788 32973 ft 425 kts 258°
2026-04-30 21:02 51.70312 9.25172 32700 ft 426 kts 256°
2026-04-30 21:02 51.69176 9.20769 32446 ft 429 kts 240°
2026-04-30 21:02 51.67406 9.16886 32190 ft 432 kts 232°
2026-04-30 21:03 51.65527 9.13109 31929 ft 434 kts 232°
2026-04-30 21:03 51.63626 9.09325 31663 ft 435 kts 232°
2026-04-30 21:03 51.61718 9.05551 31162 ft 435 kts 232°
2026-04-30 21:03 51.59807 9.01775 30426 ft 436 kts 232°
2026-04-30 21:04 51.57917 8.98034 29715 ft 435 kts 232°
2026-04-30 21:04 51.56013 8.94270 29100 ft 432 kts 231°
2026-04-30 21:04 51.52246 8.86836 27892 ft 426 kts 231°
2026-04-30 21:05 51.50384 8.83169 27302 ft 423 kts 231°
2026-04-30 21:05 51.48530 8.79523 26727 ft 420 kts 231°
2026-04-30 21:05 51.46690 8.75907 26141 ft 418 kts 231°
2026-04-30 21:05 51.44971 8.72174 25597 ft 415 kts 235°
2026-04-30 21:06 51.43345 8.68371 25045 ft 413 kts 236°
2026-04-30 21:06 51.41756 8.64550 24498 ft 410 kts 236°
2026-04-30 21:06 51.40200 8.60759 24027 ft 406 kts 236°
2026-04-30 21:06 51.38654 8.56986 23470 ft 403 kts 236°
2026-04-30 21:07 51.37120 8.53259 22929 ft 400 kts 236°
2026-04-30 21:07 51.35589 8.49564 22409 ft 397 kts 236°
2026-04-30 21:07 51.34063 8.45902 21933 ft 394 kts 235°
2026-04-30 21:07 51.32536 8.42261 21546 ft 394 kts 235°
2026-04-30 21:08 51.31011 8.38647 21163 ft 392 kts 235°
2026-04-30 21:08 51.29489 8.35045 20790 ft 390 kts 235°
2026-04-30 21:08 51.27979 8.31465 20413 ft 388 kts 235°
2026-04-30 21:08 51.26473 8.27902 20059 ft 386 kts 235°
2026-04-30 21:09 51.24972 8.24356 19696 ft 384 kts 234°
2026-04-30 21:09 51.23480 8.20838 19261 ft 381 kts 234°
2026-04-30 21:09 51.22002 8.17348 18815 ft 379 kts 234°
2026-04-30 21:09 51.20527 8.13870 18337 ft 377 kts 234°
2026-04-30 21:10 51.19053 8.10397 17688 ft 379 kts 234°
2026-04-30 21:10 51.17576 8.06920 17126 ft 379 kts 234°
2026-04-30 21:10 51.16098 8.03443 16598 ft 378 kts 233°
2026-04-30 21:10 51.14629 7.99993 16122 ft 375 kts 233°
2026-04-30 21:11 51.13171 7.96573 15663 ft 372 kts 233°
2026-04-30 21:11 51.11716 7.93174 15188 ft 370 kts 233°
2026-04-30 21:11 51.10268 7.89804 14743 ft 367 kts 233°
2026-04-30 21:11 51.08849 7.86501 14301 ft 365 kts 233°
2026-04-30 21:12 51.07549 7.83047 13784 ft 366 kts 243°
2026-04-30 21:12 51.06746 7.79239 13247 ft 366 kts 257°
2026-04-30 21:12 51.06493 7.75231 12731 ft 364 kts 270°
2026-04-30 21:12 51.06504 7.71222 12236 ft 361 kts 270°
2026-04-30 21:13 51.06508 7.67248 11768 ft 358 kts 269°
2026-04-30 21:13 51.06503 7.63326 11418 ft 351 kts 269°
2026-04-30 21:13 51.06493 7.59496 11174 ft 342 kts 269°
2026-04-30 21:13 51.06481 7.55778 10972 ft 331 kts 269°
2026-04-30 21:14 51.06472 7.52162 10748 ft 323 kts 269°
2026-04-30 21:14 51.06473 7.48635 10527 ft 315 kts 269°
2026-04-30 21:14 51.06481 7.45187 10286 ft 309 kts 269°
2026-04-30 21:14 51.06491 7.41786 9917 ft 306 kts 269°
2026-04-30 21:15 51.06497 7.38423 9409 ft 303 kts 269°
2026-04-30 21:15 51.06499 7.35095 8760 ft 300 kts 268°
2026-04-30 21:15 51.06500 7.31801 8069 ft 297 kts 268°
2026-04-30 21:15 51.06538 7.28532 7391 ft 295 kts 274°
2026-04-30 21:16 51.06820 7.25317 6718 ft 292 kts 277°
2026-04-30 21:16 51.07109 7.22131 6032 ft 291 kts 276°
2026-04-30 21:16 51.07390 7.18951 5632 ft 289 kts 276°
2026-04-30 21:16 51.07667 7.15802 5360 ft 287 kts 275°
2026-04-30 21:17 51.07872 7.12659 5112 ft 284 kts 267°
2026-04-30 21:17 51.07775 7.09531 4866 ft 283 kts 263°
2026-04-30 21:17 51.07661 7.06402 4608 ft 284 kts 262°
2026-04-30 21:17 51.07551 7.03308 4343 ft 275 kts 262°
2026-04-30 21:18 51.07407 7.00324 4102 ft 263 kts 253°
2026-04-30 21:18 51.06774 6.97751 4001 ft 240 kts 232°
2026-04-30 21:18 51.05708 6.95952 4010 ft 217 kts 207°
2026-04-30 21:18 51.04423 6.94760 4009 ft 212 kts 196°
2026-04-30 21:19 51.03033 6.94182 3899 ft 201 kts 178°
2026-04-30 21:19 51.01691 6.94305 3735 ft 190 kts 162°
2026-04-30 21:19 51.00488 6.95022 3541 ft 182 kts 147°
2026-04-30 21:19 50.99495 6.96229 3319 ft 179 kts 136°
2026-04-30 21:20 50.98581 6.97565 3084 ft 179 kts 136°
2026-04-30 21:20 50.97670 6.98897 2837 ft 178 kts 136°
2026-04-30 21:20 50.96768 7.00214 2602 ft 173 kts 136°
2026-04-30 21:20 50.95899 7.01480 2376 ft 166 kts 135°
2026-04-30 21:21 50.95067 7.02692 2174 ft 157 kts 135°
2026-04-30 21:21 50.94284 7.03833 1942 ft 147 kts 135°
2026-04-30 21:21 50.92898 7.05851 1593 ft 128 kts 135°
2026-04-30 21:22 50.92245 7.06802 1405 ft 127 kts 135°
2026-04-30 21:22 50.90293 7.09639 885 ft 126 kts 134°
2026-04-30 21:23 50.89647 7.10577 727 ft 126 kts 135°
2026-04-30 21:23 50.89009 7.11512 553 ft 125 kts 134°
2026-04-30 21:23 50.87744 7.13352 241 ft 120 kts 135°
2026-04-30 21:24 50.87245 7.14075 245 ft 75 kts 137°
2026-04-30 21:24 50.86957 7.14493 258 ft 22 kts 137°
2026-04-30 21:24 50.86872 7.14512 261 ft 5 kts 244°
2026-04-30 21:24 50.86878 7.14402 260 ft 13 kts 279°
2026-04-30 21:25 50.86912 7.14088 255 ft 15 kts 281°
2026-04-30 21:25 50.86938 7.13912 249 ft 18 kts 299°
2026-04-30 21:25 50.87036 7.13756 242 ft 22 kts 317°
2026-04-30 21:26 50.87309 7.13364 232 ft 32 kts 317°
2026-04-30 21:26 50.87439 7.13176 232 ft 21 kts 317°
2026-04-30 21:27 50.87667 7.12847 232 ft 25 kts 318°
2026-04-30 21:27 50.87772 7.12694 232 ft 16 kts 317°
2026-04-30 21:27 50.87850 7.12612 234 ft 13 kts 339°
2026-04-30 21:28 50.87907 7.12495 232 ft 0 kts 288°